Mineral Point, WI

12:42 AM CDT on March 25, 2017 (GMT -0500)
Iowa County

Weather History for KMRJ - January, 2014

Change the Weather History Date:

Saturday, January 11, 2014

  Actual Average (KLNR) Record (KLNR)
Temperature  
Mean Temperature 32 °F -  
Max Temperature 35 °F 24 °F 53 °F (2012)
Min Temperature 28 °F 10 °F -7 °F (2016)
Degree Days  
Heating Degree Days 34    
Moisture  
Dew Point 29 °F    
Average Humidity 88    
Maximum Humidity 100    
Minimum Humidity 80    
Precipitation  
Precipitation 0.00 in - - ()
Sea Level Pressure  
Sea Level Pressure 29.54 in    
Wind  
Wind Speed 11 mph (West)    
Max Wind Speed 18 mph    
Max Gust Speed 25 mph    
Averages and records for this station are not official NWS values.
T = Trace of Precipitation, MM = Missing Value Source: NWS Daily Summary

Daily Weather History Graph

Daily Weather History Graph

Search for Another Location

Airport or City:

Trip Planner

Search our weather history database for the weather conditions in past years. The results will help you decide how hot, cold, wet, or windy it might be!

Date:

Astronomy

Jan. 11, 2014 Rise Set
Actual Time 7:30 AM CST 4:47 PM CST
Civil Twilight 6:59 AM CST 5:19 PM CST
Nautical Twilight 6:23 AM CST 5:54 PM CST
Astronomical Twilight 5:49 AM CST 6:28 PM CST
Moon 1:32 PM CST (1/11) 3:34 AM CST (1/11)
Length of Visible Light 10h 20m
Length of Day
9h 16m
Waxing Gibbous, 83% of the Moon is Illuminated
Jan 11
Waxing Gibbous
Jan 15
Full
Jan 23
Last Quarter
Jan 30
New
Feb 6
First Quarter

Hourly Weather History & Observations

Time (CST) Temp. Windchill Dew Point Humidity Pressure Visibility Wind Dir Wind Speed Gust Speed Precip Events Conditions
12:15 AM 35.6 °F 29.9 °F 33.8 °F 93% 29.42 in - West 6.9 mph - N/A   Overcast
12:35 AM 33.8 °F 23.9 °F 33.8 °F 100% 29.41 in - West 15.0 mph - N/A   Overcast
12:55 AM 33.8 °F 26.4 °F 33.8 °F 100% 29.41 in - West 9.2 mph - N/A   Overcast
1:15 AM 33.8 °F 27.0 °F 32.0 °F 93% 29.41 in - West 8.1 mph - N/A   Overcast
1:35 AM 33.8 °F 26.4 °F 32.0 °F 93% 29.41 in - WNW 9.2 mph - N/A   Overcast
1:55 AM 33.8 °F 26.4 °F 32.0 °F 93% 29.42 in - West 9.2 mph - N/A   Overcast
2:15 AM 33.8 °F 27.7 °F 32.0 °F 93% 29.42 in - West 6.9 mph - N/A   Overcast
2:35 AM 33.8 °F 27.0 °F 32.0 °F 93% 29.42 in - West 8.1 mph - N/A   Overcast
2:55 AM 33.8 °F 27.0 °F 32.0 °F 93% 29.43 in - WNW 8.1 mph - N/A   Overcast
3:15 AM 33.8 °F 27.7 °F 32.0 °F 93% 29.43 in - WNW 6.9 mph - N/A   Overcast
3:35 AM 33.8 °F 28.6 °F 32.0 °F 93% 29.42 in - WNW 5.8 mph - N/A   Overcast
3:55 AM 33.8 °F 26.4 °F 32.0 °F 93% 29.43 in - WNW 9.2 mph 16.1 mph N/A   Overcast
4:15 AM 32.0 °F 24.2 °F 32.0 °F 100% 29.42 in - WNW 9.2 mph 18.4 mph N/A   Overcast
4:35 AM 32.0 °F 24.2 °F 32.0 °F 100% 29.43 in - WNW 9.2 mph - N/A   Overcast
4:55 AM 32.0 °F 24.2 °F 32.0 °F 100% 29.43 in - WNW 9.2 mph - N/A   Overcast
5:15 AM 32.0 °F 24.8 °F 32.0 °F 100% 29.44 in - WNW 8.1 mph - N/A   Overcast
5:35 AM 32.0 °F 23.6 °F 32.0 °F 100% 29.44 in - WNW 10.4 mph 18.4 mph N/A   Overcast
5:55 AM 32.0 °F 24.8 °F 30.2 °F 93% 29.44 in - WNW 8.1 mph - N/A   Overcast
6:15 AM 32.0 °F 22.1 °F 30.2 °F 93% 29.45 in - West 13.8 mph 17.3 mph N/A   Overcast
6:35 AM 32.0 °F 23.6 °F 30.2 °F 93% 29.45 in - WNW 10.4 mph 18.4 mph N/A   Overcast
6:55 AM 32.0 °F 23.6 °F 30.2 °F 93% 29.46 in - WNW 10.4 mph 17.3 mph N/A   Overcast
7:15 AM 32.0 °F 22.1 °F 30.2 °F 93% 29.46 in - West 13.8 mph 19.6 mph N/A   Overcast
7:35 AM 32.0 °F 22.1 °F 30.2 °F 93% 29.47 in - WNW 13.8 mph - N/A   Overcast
7:55 AM 32.0 °F 22.1 °F 30.2 °F 93% 29.47 in - West 13.8 mph 18.4 mph N/A   Overcast
8:15 AM 32.0 °F 22.5 °F 30.2 °F 93% 29.48 in - WNW 12.7 mph - N/A   Overcast
8:35 AM 32.0 °F 23.0 °F 30.2 °F 93% 29.48 in - West 11.5 mph 17.3 mph N/A   Overcast
8:55 AM 32.0 °F 23.0 °F 30.2 °F 93% 29.49 in - West 11.5 mph - N/A   Overcast
9:15 AM 32.0 °F 23.0 °F 28.4 °F 87% 29.49 in - WNW 11.5 mph - N/A   Overcast
9:35 AM 32.0 °F 22.5 °F 30.2 °F 93% 29.50 in - West 12.7 mph 18.4 mph N/A   Overcast
9:55 AM 32.0 °F 21.6 °F 28.4 °F 87% 29.50 in - West 15.0 mph - N/A   Overcast
10:15 AM 32.0 °F 20.8 °F 28.4 °F 87% 29.50 in - West 17.3 mph 20.7 mph N/A   Overcast
10:35 AM 32.0 °F 22.1 °F 28.4 °F 87% 29.51 in - West 13.8 mph 21.9 mph N/A   Overcast
10:55 AM 32.0 °F 22.1 °F 28.4 °F 87% 29.50 in - West 13.8 mph - N/A   Overcast
11:15 AM 32.0 °F 21.2 °F 28.4 °F 87% 29.50 in - West 16.1 mph 19.6 mph N/A   Overcast
11:35 AM 32.0 °F 20.8 °F 28.4 °F 87% 29.49 in - West 17.3 mph 23.0 mph N/A   Overcast
11:55 AM 32.0 °F 20.5 °F 28.4 °F 87% 29.48 in - West 18.4 mph - N/A   Overcast
12:15 PM 33.8 °F 23.9 °F 28.4 °F 81% 29.49 in - West 15.0 mph - N/A   Overcast
12:35 PM 33.8 °F 23.2 °F 28.4 °F 81% 29.49 in - West 17.3 mph 21.9 mph N/A   Overcast
12:55 PM 32.0 °F 20.8 °F 28.4 °F 87% 29.49 in - West 17.3 mph 21.9 mph N/A   Overcast
1:15 PM 32.0 °F 20.5 °F 28.4 °F 87% 29.50 in - West 18.4 mph 24.2 mph N/A   Overcast
1:35 PM 32.0 °F 20.8 °F 28.4 °F 87% 29.50 in - West 17.3 mph 23.0 mph N/A   Overcast
1:55 PM 32.0 °F 21.6 °F 26.6 °F 80% 29.51 in - West 15.0 mph 24.2 mph N/A   Overcast
2:15 PM 32.0 °F 20.8 °F 26.6 °F 80% 29.52 in - West 17.3 mph 25.3 mph N/A   Overcast
2:35 PM 32.0 °F 22.1 °F 26.6 °F 80% 29.53 in - West 13.8 mph - N/A   Overcast
2:55 PM 32.0 °F 21.2 °F 26.6 °F 80% 29.54 in - West 16.1 mph 21.9 mph N/A   Overcast
3:15 PM 32.0 °F 21.6 °F 26.6 °F 80% 29.55 in - West 15.0 mph 24.2 mph N/A   Overcast
3:35 PM 32.0 °F 22.5 °F 26.6 °F 80% 29.56 in - WNW 12.7 mph 23.0 mph N/A   Overcast
3:55 PM 32.0 °F 21.6 °F 26.6 °F 80% 29.58 in - WNW 15.0 mph 21.9 mph N/A   Overcast
4:15 PM 32.0 °F 21.6 °F 26.6 °F 80% 29.60 in - WNW 15.0 mph 18.4 mph N/A   Overcast
4:35 PM 32.0 °F 23.0 °F 26.6 °F 80% 29.61 in - WNW 11.5 mph 18.4 mph N/A   Overcast
4:55 PM 32.0 °F 23.6 °F 26.6 °F 80% 29.62 in - WNW 10.4 mph - N/A   Overcast
5:15 PM 32.0 °F 22.5 °F 26.6 °F 80% 29.62 in - West 12.7 mph - N/A   Overcast
5:35 PM 32.0 °F 24.2 °F 26.6 °F 80% 29.63 in - WNW 9.2 mph - N/A   Overcast
5:55 PM 32.0 °F 24.8 °F 26.6 °F 80% 29.64 in - WNW 8.1 mph - N/A   Overcast
6:15 PM 30.2 °F 21.9 °F 26.6 °F 86% 29.65 in - WNW 9.2 mph - N/A   Overcast
6:35 PM 30.2 °F 20.8 °F 26.6 °F 86% 29.66 in - West 11.5 mph 18.4 mph N/A   Overcast
6:55 PM 32.0 °F 20.8 °F 26.6 °F 80% 29.67 in - West 17.3 mph 21.9 mph N/A   Overcast
7:15 PM 32.0 °F 22.1 °F 26.6 °F 80% 29.68 in - West 13.8 mph - N/A   Overcast
7:35 PM 32.0 °F 22.1 °F 28.4 °F 87% 29.69 in - West 13.8 mph 19.6 mph N/A   Overcast
7:55 PM 32.0 °F 22.1 °F 26.6 °F 80% 29.69 in - West 13.8 mph 20.7 mph N/A   Overcast
8:15 PM 32.0 °F 21.2 °F 26.6 °F 80% 29.70 in - West 16.1 mph 23.0 mph N/A   Overcast
8:35 PM 32.0 °F 21.6 °F 26.6 °F 80% 29.71 in - West 15.0 mph - N/A   Overcast
8:50 PM 30.2 °F 18.5 °F 26.6 °F 86% 29.71 in - West 17.3 mph - N/A   Overcast
9:15 PM 30.2 °F 19.8 °F 26.6 °F 86% 29.73 in - West 13.8 mph - N/A   Overcast
9:35 PM 30.2 °F 20.8 °F 26.6 °F 86% 29.73 in - West 11.5 mph 17.3 mph N/A   Overcast
9:55 PM 30.2 °F 20.2 °F 26.6 °F 86% 29.73 in - West 12.7 mph - N/A   Overcast
10:15 PM 30.2 °F 19.8 °F 26.6 °F 86% 29.74 in - West 13.8 mph - N/A   Overcast
10:35 PM 30.2 °F 19.3 °F 26.6 °F 86% 29.74 in - WSW 15.0 mph 18.4 mph N/A   Overcast
10:55 PM 30.2 °F 19.3 °F 26.6 °F 86% 29.74 in - West 15.0 mph - N/A   Overcast
11:15 PM 28.4 °F 19.7 °F 26.6 °F 93% 29.74 in - West 9.2 mph - N/A   Overcast
11:35 PM 28.4 °F 18.5 °F 26.6 °F 93% 29.74 in - West 11.5 mph - N/A   Overcast
11:55 PM 28.4 °F 17.5 °F 26.6 °F 93% 29.74 in - West 13.8 mph - N/A   Overcast